Location: Unspecified
(35.7250°N, 0.0000°E)
Time: 23:05:31
(UTC+00:00)

S-56A Canister/Altair - All Passes

Search period start: 20 June 2019 00:00
Search period end: 30 June 2019 00:00
Orbit: 633 x 2499 km, 38.9° (Epoch: 19 June)

Date Brightness Start Highest point End Pass type
(mag) Time Alt. Az. Time Alt. Az. Time Alt. Az.
20 Jun - 12:38:09 10° SSE 12:41:09 11° SE 12:43:57 10° SE daylight
20 Jun - 14:36:17 10° SSW 14:46:06 38° SSE 14:52:55 10° E daylight
20 Jun - 16:41:36 10° WSW 16:50:42 85° SSE 16:56:37 10° ENE daylight
20 Jun - 18:48:21 10° W 18:55:04 63° N 18:59:54 10° E daylight
20 Jun - 20:53:50 10° WNW 20:59:00 76° SSW 21:03:25 10° ESE visible
20 Jun - 22:59:22 10° WSW 23:02:04 16° SW 23:04:49 10° S visible
21 Jun - 14:03:00 10° SSW 14:13:08 35° SSE 14:20:19 10° E daylight
21 Jun - 16:08:04 10° WSW 16:17:54 79° SSE 16:24:14 10° ENE daylight
21 Jun - 18:15:01 10° W 18:22:23 65° N 18:27:29 10° E daylight
21 Jun - 20:20:54 10° WNW 20:26:30 86° SSW 20:30:59 10° ESE visible
21 Jun - 22:26:18 10° W 22:29:36 19° SW 22:32:49 10° S visible
22 Jun - 13:29:46 10° SSW 13:40:06 32° SSE 13:47:37 10° E daylight
22 Jun - 15:34:28 10° WSW 15:45:02 74° SSE 15:51:49 10° ENE daylight
22 Jun - 17:41:34 10° W 17:49:40 68° N 17:55:07 10° ENE daylight
22 Jun - 19:47:53 10° WNW 19:53:57 86° NNE 19:58:34 10° ESE visible
22 Jun - 21:53:19 10° W 21:57:09 24° SW 22:00:43 10° SSE visible
23 Jun - 12:56:35 10° SSW 13:07:02 30° SE 13:14:50 10° E daylight
23 Jun - 15:00:52 10° SW 15:12:06 69° SSE 15:19:23 10° ENE daylight
23 Jun - 17:08:01 10° W 17:16:54 71° N 17:22:44 10° ENE daylight
23 Jun - 19:14:44 10° WNW 19:21:22 80° NNE 19:26:10 10° ESE daylight
23 Jun - 21:20:18 10° W 21:24:42 30° SW 21:28:35 10° SSE visible
24 Jun - 12:23:30 10° SSW 12:33:54 28° SE 12:41:56 10° E daylight
24 Jun - 14:27:15 10° SW 14:39:06 65° SSE 14:46:53 10° ENE daylight
24 Jun - 16:34:22 10° W 16:44:04 75° N 16:50:20 10° ENE daylight
24 Jun - 18:41:28 10° WNW 18:48:43 76° N 18:53:46 10° E daylight
24 Jun - 20:47:16 10° W 20:52:16 37° SSW 20:56:25 10° SE visible
25 Jun - 11:50:31 10° S 12:00:44 25° SE 12:08:54 10° E daylight
25 Jun - 13:53:38 10° SW 14:06:02 60° SSE 14:14:21 10° ENE daylight
25 Jun - 16:00:40 10° W 16:11:10 78° NNW 16:17:55 10° ENE daylight
25 Jun - 18:08:06 10° WNW 18:16:01 73° N 18:21:22 10° E daylight
25 Jun - 20:14:10 10° WNW 20:19:48 45° SSW 20:24:12 10° SE visible
26 Jun - 11:17:41 10° S 11:27:32 23° SE 11:35:42 10° E daylight
26 Jun - 13:20:04 10° SW 13:32:54 56° SSE 13:41:45 10° ENE daylight
26 Jun - 15:26:53 10° WSW 15:38:13 82° NNW 15:45:29 10° ENE daylight
26 Jun - 17:34:36 10° WNW 17:43:17 72° N 17:48:58 10° E daylight
26 Jun - 19:41:00 10° WNW 19:47:18 55° SSW 19:51:58 10° SE visible
27 Jun - 10:45:02 10° S 10:54:19 20° SE 11:02:18 10° E daylight
27 Jun - 12:46:33 10° SW 12:59:42 52° SSE 13:09:04 10° ENE daylight
27 Jun - 14:53:05 10° WSW 15:05:12 86° NNW 15:13:01 10° ENE daylight
27 Jun - 17:01:01 10° W 17:10:27 71° N 17:16:34 10° E daylight
27 Jun - 19:07:44 10° WNW 19:14:46 64° SSW 19:19:43 10° SE daylight
27 Jun - 21:15:27 10° WSW 21:17:26 12° SW 21:19:16 10° SSW visible
28 Jun - 10:12:37 10° S 10:21:05 18° SE 10:28:38 10° E daylight
28 Jun - 12:13:05 10° SW 12:26:27 49° SSE 12:36:19 10° ENE daylight
28 Jun - 14:19:15 10° WSW 14:32:05 89° SSE 14:40:30 10° ENE daylight
28 Jun - 16:27:19 10° W 16:37:33 71° N 16:44:09 10° E daylight
28 Jun - 18:34:24 10° WNW 18:42:09 74° SSW 18:47:25 10° ESE daylight
28 Jun - 20:41:32 10° W 20:45:00 16° SW 20:48:00 10° S visible
29 Jun - 09:40:33 10° SSE 09:47:51 15° SE 09:54:35 10° ESE daylight
29 Jun - 11:39:44 10° SSW 11:53:10 45° SE 12:03:27 10° ENE daylight
29 Jun - 13:45:26 10° WSW 13:58:54 85° SSE 14:07:55 10° ENE daylight
29 Jun - 15:53:32 10° W 16:04:35 72° N 16:11:41 10° E daylight
29 Jun - 18:00:58 10° WNW 18:09:29 82° SSW 18:15:06 10° ESE daylight
29 Jun - 20:07:56 10° W 20:12:34 21° SW 20:16:20 10° S visible
